星链-31755 (STARLINK-31755 )

导读

STARLINK-31755是美国SpaceX星链互联网卫星星座的一员,于2024年4月28日发射入轨。星链计划旨在通过近地轨道卫星群,为全球提供高速互联网络服务。该卫星继承星链星座技术方案,服务全球偏远地区、移动场景等传统网络难以覆盖的用户,推动全球互联网普及,进一步完善星链星座的全球覆盖能力。

Basic Information
目录编号:
59607
目录名称:
STARLINK-31755
国际标识:
2024-080G
轨道中心:
EARTH
卫星名称:
星链-31755
卫星全名:
星链-31755 (STARLINK-31755 )
卫星状态:
在轨 (已飞行780 天)
发射日期:
2024-04-28 UTC
国别 :
美国 (US)
星等 :
--
Orbit Information
数据来源 国际轨道数据 AOE轨道数据
星历时间 2026-06-17T02:58:23+0800
1天前
查看轨道信息
2026-06-17T07:00:00+0800
22小时前
查看轨道信息
半长轴 6861.185km 6861.187km
偏心率 0.0000822 0.0001253
轨道倾角 43.001° 42.994°
近地点辐角 290.638° 0.497°
升交点赤经 202.147° 201.227°
平近点角 69.439° 203.386°
近地点 482.484km 482.19km
远地点 483.612km 483.91km
周期 94.267分钟 94.267分钟
每日圈数 15.275804 15.275799
Detailed Information
固有亮度:
5
最大亮度:
1.5
卫星平台:
Starlink v2.0 mini
覆盖范围:
全球
运营商:
太空探索技术公司
运营商所在国:
美国
制造商(研发单位):
太空探索技术公司
制造商所在国:
美国
使用方式:
暂无
Satellite Introduction
星链(Starlink)计划是由太空探索技术公司(SpaceX)提出的一个巨型低轨卫星互联网星座项目,计划在2019年至2024年间在太空搭建由约1.2万颗卫星组成的“星链”网络,其中1584颗将部署在地球上空550千米处的近地轨道,并从2020年开始工作。该卫星仍在工作。
2D Orbit Map
3D Orbit Map
Orbit Altitude Analysis Chart
Orbit Inclination Analysis Chart
Orbit Comprehensive Analysis Chart
View Comprehensive Chart